Погода в Каракуме

Узбекистан     39°07′03″N   65°25′52″E
темп.,
°C
ветер,
м/с
пор.,
м/с
влажн.,
%
обл.,
%
осадки,
мм/ч
давл.,
гПа
погр.,
м
27 февраля, сб
сб2723:00−3ссз22250 0.0 103037
02:00−3с112493 0.0 102948
05:00−2св112497 0.0 102966
08:00−2ююв1222100 0.0 1029111
11:00+3ююз231678 0.0 1030668
14:00+6юз34160 0.0 10281087
17:00+7юз33160 0.0 1027986
20:00+3зсз11230 0.0 102822
28 февраля, вс
вс2823:00+3св23210 0.0 102729
02:00+2всв34290 0.0 102533
05:00+2всв34400 0.0 102351
08:00+2св34430 0.0 102384
11:00+10св45250 0.0 1021470
14:00+14ссв33180 0.0 1019921
17:00+14ссв33181 0.0 1017984
20:00+10св34270 0.0 101832
1 марта, пн
пн123:00+8всв343511 0.0 101830
02:00+8юв3435100 0.0 101824
05:00+7юв3436100 0.0 101731
08:00+7вюв343220 0.0 101834
11:00+16ююз481710 0.0 1018529
14:00+21ююз810120 0.0 10171887
17:00+20ююз710150 0.0 10161591
20:00+15ю452333 0.0 101876
2 марта, вт
вт223:00+13ссз342567 0.0 101928
02:00+12ссв3426100 0.0 101939
05:00+11св3329100 0.0 101926
08:00+11с2327100 0.0 102023
11:00+15сз2221100 0.0 1020263
14:00+17сз4421100 0.0 1020714
17:00+17зсз4422100 0.0 1019936
20:00+13ссв333898 0.0 102071
3 марта, ср
ср323:00+12ссв124399 0.0 102022
02:00+10ссз225298 0.0 102023
05:00+10с234393 0.0 102031
08:00+9сз3443100 0.0 1020116
11:00+13ссз2329100 0.0 1020472
14:00+16сз232653 0.0 10181479
17:00+16ссз222754 0.0 10171523
20:00+13ссв353563 0.0 1016106